{"data":{"norad_id":57873,"intl_designator":"2023-144K","name":"STARLINK-30445","alt_names":[],"object_type":"PAYLOAD","status":"ACTIVE","operator":null,"country":"US","launch_date":"2023-09-16","launch_site_code":"AFETR","launch_vehicle":null,"mission":null,"orbit_class":"UNKNOWN","rcs_meters":null,"size_class":null,"mass_kg":null,"dimensions":null,"purposes":["comms"],"wikipedia_slug":null,"has_3d_model":false,"image_url":null,"decayed_at":null,"tle_current":{"epoch":"2026-09-20T01:34:07.879008Z","epoch_age_seconds":172742,"freshness":"FRESH","line1":"1 57873U 23144K   26263.06536897 -.00000225  00000+0  13584-5 0  9992","line2":"2 57873  43.0033 267.5640 0001091 272.0131  88.0596 15.27574967167320","mean_motion":15.27574967,"eccentricity":0.0001091,"inclination_deg":43.0033,"raan_deg":267.564,"arg_perigee_deg":272.0131,"mean_anomaly_deg":88.0596,"bstar":1.3584e-6,"rev_number":16732,"period_min":94.267059300403,"perigee_km":482.31560964636,"apogee_km":483.81272374093,"semimajor_km":6861.2011666936,"source":"CELESTRAK","updated_at":"2026-09-21T09:00:33.717739Z"}}}